Location: Burgerwiesen
(48.6500°N, 15.6167°E)
Time: 02:43:37
(UTC+00:00)

Iridium 4 Rocket - Pass Details

Date: 09 April 2020
Orbit: 586 x 904 km, 86.9° (Epoch: 03 June)

Event Time Altitude Azimuth Distance (km) Brightness Sun altitude
Rises 19:51:42 0° 356° (N) 2,859 7.1 -20.1°
Reaches altitude 10° 19:53:55 10° 357° (N) 1,934 6.2 -20.4°
Maximum altitude 19:58:07 89° 276° (W) 594 2.9 -20.9°
Enters shadow 19:59:07 52° 180° (S) 737 3.1 -21.0°
